AI0J-13 Weather Reports


time (UTC)temp
F
wind
direction
speed
knots
gust
knots
rain 1hr
in
rain 24hr
in
rain mn
in
humidity
%
barometer
mb
20240229020502 31 85 4.3 5.2 0.00 0.00 0.00 30 1008.6
20240229015502 31 146 6.1 6.1 0.00 0.00 0.00 31 1008.7
20240229015002 31 135 1.7 7.8 0.00 0.00 0.00 31 1008.3
20240229014501 31 63 2.6 7.0 0.00 0.00 0.00 31 1008.5
20240229014002 31 151 1.7 9.6 0.00 0.00 0.00 33 1008.3
20240229013502 31 64 3.5 7.8 0.00 0.00 0.00 30 1008.5
20240229013002 31 72 6.1 8.7 0.00 0.00 0.00 31 1008.3
20240229012501 31 77 5.2 7.0 0.00 0.00 0.00 31 1008.4
20240229012002 31 34 3.5 6.1 0.00 0.00 0.00 31 1008.5
20240229011502 31 67 8.7 9.6 0.00 0.00 0.00 31 1008.3
20240229010503 32 91 1.7 5.2 0.00 0.00 0.00 32 1008.5
20240229010002 32 129 2.6 9.6 0.00 0.00 0.00 32 1008.4
20240229005502 33 31 3.5 9.6 0.00 0.00 0.00 29 1008.4
20240229005002 33 60 9.6 9.6 0.00 0.00 0.00 28 1008.5
20240229004502 33 73 4.3 9.6 0.00 0.00 0.00 28 1008.6
20240229003502 33 44 3.5 11.3 0.00 0.00 0.00 29 1008.6
20240229003002 34 104 2.6 6.1 0.00 0.00 0.00 31 1008.5
20240229002501 34 102 3.5 7.8 0.00 0.00 0.00 28 1008.4
20240229002002 34 78 8.7 9.6 0.00 0.00 0.00 27 1008.3
20240229001503 34 50 5.2 9.6 0.00 0.00 0.00 29 1008.4
20240229001002 37 278 4.3 4.3 0.00 0.00 0.00 26 1008.3
20240229000502 37 117 1.7 6.1 0.00 0.00 0.00 26 1008.4
20240229000001 37 92 3.5 14.8 0.00 0.00 0.00 27 1008.4
20240228235503 38 117 3.5 7.8 0.00 0.00 0.00 27 1008.3
20240228234502 38 235 3.5 10.4 0.00 0.00 0.00 25 1008.2
20240228234002 38 223 1.7 10.4 0.00 0.00 0.00 29 1008.2
20240228233502 38 112 2.6 5.2 0.00 0.00 0.00 25 1008.5
20240228233002 38 86 5.2 9.6 0.00 0.00 0.00 25 1008.4
20240228232501 39 206 3.5 16.5 0.00 0.00 0.00 25 1008.3
20240228231502 40 235 3.5 13.0 0.00 0.00 0.00 25 1008.2
20240228230502 40 192 2.6 5.2 0.00 0.00 0.00 26 1008.6
20240228230001 38 275 5.2 10.4 0.00 0.00 0.00 25 1008.4
20240228225002 37 275 7.0 11.3 0.00 0.00 0.00 26 1008.2
20240228224501 37 146 7.0 7.0 0.00 0.00 0.00 28 1008.2
20240228223002 38 239 9.6 10.4 0.00 0.00 0.00 27 1008.3
20240228222501 39 170 4.3 12.2 0.00 0.00 0.00 26 1008.2
20240228222002 39 265 3.5 13.0 0.00 0.00 0.00 26 1008.1
20240228221501 38 245 6.1 14.8 0.00 0.00 0.00 26 1008.0
20240228221002 38 182 3.5 20.0 0.00 0.00 0.00 26 1007.9
20240228220502 38 95 8.7 14.8 0.00 0.00 0.00 25 1007.8
20240228220002 39 138 7.8 14.8 0.00 0.00 0.00 27 1008.0
20240228214501 38 189 7.0 11.3 0.00 0.00 0.00 27 1008.3
20240228214002 38 218 5.2 8.7 0.00 0.00 0.00 28 1008.2
20240228213002 37 155 7.0 13.0 0.00 0.00 0.00 30 1008.0
20240228212502 37 246 12.2 15.6 0.00 0.00 0.00 29 1008.3
20240228212002 36 237 6.1 18.2 0.00 0.00 0.00 29 1008.1
20240228211502 37 249 5.2 13.9 0.00 0.00 0.00 30 1008.2
20240228211001 37 306 3.5 8.7 0.00 0.00 0.00 30 1008.0
20240228210502 37 121 7.8 9.6 0.00 0.00 0.00 31 1008.2
20240228210001 37 185 3.5 14.8 0.00 0.00 0.00 31 1008.3
20240228205502 36 279 4.3 15.6 0.00 0.00 0.00 31 1008.4
20240228205002 36 278 14.8 14.8 0.00 0.00 0.00 30 1008.2
20240228204502 36 269 6.1 11.3 0.00 0.00 0.00 30 1008.2
20240228204001 36 242 5.2 12.2 0.00 0.00 0.00 29 1007.9
20240228203002 35 275 9.6 16.5 0.00 0.00 0.00 30 1007.4
20240228202501 34 253 12.2 26.1 0.00 0.00 0.00 31 1007.6
20240228202002 34 262 13.0 22.6 0.00 0.00 0.00 30 1007.6
20240228201502 34 254 13.9 23.5 0.00 0.00 0.00 30 1007.5
20240228201001 33 267 13.0 23.5 0.00 0.00 0.00 31 1007.7
20240228195502 33 244 11.3 24.3 0.00 0.00 0.00 33 1007.7
20240228195002 32 245 13.0 24.3 0.00 0.00 0.00 33 1007.8
20240228194502 33 238 12.2 13.9 0.00 0.00 0.00 33 1007.6
20240228194002 32 268 5.2 26.9 0.00 0.00 0.00 34 1007.9
20240228193501 33 73 6.1 11.3 0.00 0.00 0.00 34 1008.0
20240228193002 32 261 13.0 22.6 0.00 0.00 0.00 33 1007.9
20240228192502 33 154 9.6 14.8 0.00 0.00 0.00 34 1007.9
20240228192002 33 156 7.0 14.8 0.00 0.00 0.00 33 1008.0
20240228191502 32 209 5.2 22.6 0.00 0.00 0.00 33 1007.8
20240228191002 31 202 7.0 17.4 0.00 0.00 0.00 36 1008.0
20240228190501 31 245 20.9 23.5 0.00 0.00 0.00 34 1007.9
20240228190002 31 157 7.0 24.3 0.00 0.00 0.00 34 1008.2
20240228185502 31 65 5.2 13.9 0.00 0.00 0.00 34 1008.2
20240228185001 31 192 5.2 13.0 0.00 0.00 0.00 33 1008.3
20240228184502 31 110 8.7 14.8 0.00 0.00 0.00 32 1008.2
20240228184001 30 163 4.3 13.9 0.00 0.00 0.00 34 1008.2
20240228183502 30 257 7.0 11.3 0.00 0.00 0.00 33 1008.2
20240228183002 29 226 3.5 18.2 0.00 0.00 0.00 35 1008.3
20240228182503 30 172 7.8 13.9 0.00 0.00 0.00 32 1008.6
20240228182001 29 130 5.2 13.9 0.00 0.00 0.00 33 1008.4
20240228181502 28 116 4.3 11.3 0.00 0.00 0.00 34 1008.1
20240228181001 29 251 7.8 16.5 0.00 0.00 0.00 32 1008.7
20240228180001 27 258 9.6 19.1 0.00 0.00 0.00 33 1008.0
20240228175502 27 275 7.0 27.8 0.00 0.00 0.00 33 1007.9
20240228175001 27 277 10.4 24.3 0.00 0.00 0.00 33 1007.7
20240228174503 31 231 5.2 15.6 0.00 0.00 0.00 30 1007.5
20240228174002 28 190 5.2 33.0 0.00 0.00 0.00 32 1007.6
20240228173502 29 259 16.5 22.6 0.00 0.00 0.00 32 1007.2
20240228173001 29 248 15.6 27.8 0.00 0.00 0.00 31 1007.3
20240228172002 29 251 12.2 20.9 0.00 0.00 0.00 31 1007.4
20240228171501 30 237 10.4 24.3 0.00 0.00 0.00 30 1007.0
20240228171002 27 167 7.0 15.6 0.00 0.00 0.00 32 1007.2
20240228170502 27 200 6.1 17.4 0.00 0.00 0.00 32 1007.0
20240228165502 27 266 11.3 14.8 0.00 0.00 0.00 31 1007.6
20240228164502 27 276 7.0 26.1 0.00 0.00 0.00 30 1007.5
20240228164002 27 330 4.3 12.2 0.00 0.00 0.00 33 1007.2
20240228163001 25 153 3.5 20.0 0.00 0.00 0.00 33 1007.1
20240228162502 25 295 2.6 15.6 0.00 0.00 0.00 33 1007.2
20240228162002 25 265 7.0 18.2 0.00 0.00 0.00 32 1007.0
20240228161502 24 264 11.3 17.4 0.00 0.00 0.00 33 1006.5
20240228161002 23 254 17.4 22.6 0.00 0.00 0.00 34 1006.1
20240228160502 23 261 10.4 28.7 0.00 0.00 0.00 34 1006.4
20240228155002 22 231 6.1 17.4 0.00 0.00 0.00 34 1005.9
20240228154002 23 320 13.0 13.9 0.00 0.00 0.00 34 1005.6
20240228153502 23 251 6.1 25.2 0.00 0.00 0.00 34 1005.6
20240228152502 24 280 15.6 21.7 0.00 0.00 0.00 34 1005.8
20240228152002 24 252 8.7 22.6 0.00 0.00 0.00 35 1005.5
20240228151501 24 254 5.2 13.9 0.00 0.00 0.00 34 1005.3
20240228151002 23 233 9.6 16.5 0.00 0.00 0.00 34 1004.8
20240228150501 22 201 6.1 30.4 0.00 0.00 0.00 35 1004.9
20240228150002 22 275 14.8 19.1 0.00 0.00 0.00 35 1004.7
20240228145502 21 304 5.2 26.9 0.00 0.00 0.00 36 1004.7
20240228145003 20 223 6.1 31.3 0.00 0.00 0.00 35 1004.6
20240228144501 20 182 8.7 32.2 0.00 0.00 0.00 38 1004.5
20240228142502 18 243 16.5 28.7 0.00 0.00 0.00 36 1003.9
20240228142001 18 251 7.8 22.6 0.00 0.00 0.00 36 1004.0
20240228141502 17 268 4.3 28.7 0.00 0.00 0.00 37 1003.9
20240228141001 16 247 10.4 40.0 0.00 0.00 0.00 37 1004.0
20240228140502 16 266 13.0 41.7 0.00 0.00 0.00 36 1003.6
20240228140002 16 272 14.8 42.6 0.00 0.00 0.00 36 1003.4
20240228135502 15 248 13.9 38.2 0.00 0.00 0.00 37 1003.6
20240228135002 14 249 21.7 32.2 0.00 0.00 0.00 37 1003.7
20240228134501 14 263 20.0 26.1 0.00 0.00 0.00 38 1003.2
20240228134002 13 237 14.8 30.4 0.00 0.00 0.00 38 1003.3
20240228133002 12 242 12.2 36.5 0.00 0.00 0.00 39 1003.1
20240228132501 12 287 13.0 28.7 0.00 0.00 0.00 40 1003.1
20240228132002 13 279 11.3 26.9 0.00 0.00 0.00 39 1002.9
20240228131502 13 236 13.0 30.4 0.00 0.00 0.00 38 1002.9
20240228131001 13 265 13.9 34.8 0.00 0.00 0.00 38 1003.2
20240228130502 12 252 17.4 25.2 0.00 0.00 0.00 38 1003.6
20240228130002 12 256 7.8 43.4 0.00 0.00 0.00 38 1003.3
20240228125502 12 258 20.0 35.6 0.00 0.00 0.00 37 1003.4
20240228125002 11 248 12.2 27.8 0.00 0.00 0.00 39 1003.4
20240228124502 10 240 15.6 37.4 0.00 0.00 0.00 40 1003.0
20240228124002 10 255 25.2 44.3 0.00 0.00 0.00 42 1002.6
20240228123502 9 267 6.1 31.3 0.00 0.00 0.00 43 1002.5
20240228123002 10 235 7.8 28.7 0.00 0.00 0.00 41 1002.4
20240228122501 9 237 10.4 35.6 0.00 0.00 0.00 43 1002.3
20240228122001 9 240 11.3 33.9 0.00 0.00 0.00 43 1002.5
20240228120502 8 208 7.0 31.3 0.00 0.00 0.00 46 1001.9
20240228120002 8 178 6.1 33.9 0.00 0.00 0.00 46 1002.2
20240228115501 8 335 9.6 28.7 0.00 0.00 0.00 46 1001.7
20240228115002 8 227 10.4 25.2 0.00 0.00 0.00 48 1001.9
20240228114502 8 284 9.6 33.9 0.00 0.00 0.00 48 1001.7
20240228113502 8 237 17.4 27.8 0.00 0.00 0.00 49 1001.3
20240228113002 8 233 13.9 44.3 0.00 0.00 0.00 49 1001.5
20240228112502 7 234 13.9 26.9 0.00 0.00 0.00 51 1000.9
20240228112002 7 175 7.8 26.1 0.00 0.00 0.00 53 1000.8
20240228111502 7 285 4.3 26.9 0.00 0.00 0.00 51 1000.5
20240228111001 7 240 18.2 27.8 0.00 0.00 0.00 52 1001.2
20240228110502 7 126 5.2 22.6 0.00 0.00 0.00 53 1001.3
20240228110002 7 242 10.4 26.1 0.00 0.00 0.00 54 1001.1
20240228105501 6 268 7.0 23.5 0.00 0.00 0.00 55 1001.7
20240228105002 6 222 7.0 28.7 0.00 0.00 0.00 55 1001.9
20240228104501 6 251 20.0 34.8 0.00 0.00 0.00 55 1002.1
20240228104002 6 267 8.7 20.0 0.00 0.00 0.00 57 1002.1
20240228103501 6 229 14.8 22.6 0.00 0.00 0.00 57 1001.5
20240228103002 6 213 7.8 31.3 0.00 0.00 0.00 57 1001.5
20240228102503 6 227 7.8 27.8 0.00 0.00 0.00 57 1001.3
20240228102002 6 237 19.1 24.3 0.00 0.00 0.00 58 1001.4
20240228101501 6 214 8.7 17.4 0.00 0.00 0.00 59 1001.2
20240228101002 6 256 10.4 26.1 0.00 0.00 0.00 58 1001.8
20240228100501 5 247 13.0 27.8 0.00 0.00 0.00 59 1001.3
20240228100003 5 266 6.1 22.6 0.00 0.00 0.00 60 1001.4
20240228095501 5 204 5.2 20.9 0.00 0.00 0.00 60 1001.4
20240228094501 5 255 23.5 36.5 0.00 0.00 0.00 60 1002.0
20240228093501 5 156 4.3 20.0 0.00 0.00 0.00 62 1001.6
20240228093002 5 256 14.8 28.7 0.00 0.00 0.00 61 1001.6
20240228092501 5 249 11.3 29.5 0.00 0.00 0.00 59 1000.7
20240228092002 5 228 12.2 33.0 0.00 0.00 0.00 61 1001.0
20240228091502 5 151 11.3 40.0 0.00 0.00 0.00 60 1000.8
20240228090502 5 178 8.7 22.6 0.00 0.00 0.00 61 1000.8
20240228090003 5 247 13.9 20.0 0.00 0.00 0.00 59 1001.0
20240228085501 5 174 10.4 24.3 0.00 0.00 0.00 60 1001.0
20240228085002 5 275 18.2 35.6 0.00 0.00 0.00 59 1000.7
20240228084502 5 244 21.7 32.2 0.00 0.00 0.00 59 1000.7
20240228084001 5 236 20.0 37.4 0.00 0.00 0.00 59 1000.9
20240228083502 5 230 8.7 33.0 0.00 0.00 0.00 58 1000.7
20240228082001 5 259 13.9 22.6 0.00 0.00 0.00 62 1001.6
20240228081502 5 245 7.8 15.6 0.00 0.00 0.00 62 1001.8
20240228080502 5 258 11.3 19.1 0.00 0.00 0.00 60 1002.0
20240228075502 5 230 6.1 27.8 0.00 0.00 0.00 62 1001.8
20240228075002 5 259 7.8 22.6 0.00 0.00 0.00 60 1001.6
20240228074502 5 275 7.0 26.1 0.00 0.00 0.00 61 1001.9
20240228073502 5 248 6.1 23.5 0.00 0.00 0.00 61 1001.2
20240228073002 5 195 4.3 23.5 0.00 0.00 0.00 61 1001.5
20240228072502 5 228 12.2 22.6 0.00 0.00 0.00 60 1000.9
20240228072001 5 294 24.3 39.1 0.00 0.00 0.00 60 1000.5
20240228071001 5 278 5.2 21.7 0.00 0.00 0.00 62 1001.8
20240228070502 5 255 10.4 18.2 0.00 0.00 0.00 61 1001.8
20240228070001 5 317 2.6 20.9 0.00 0.00 0.00 62 1001.9
20240228065502 5 230 6.1 19.1 0.00 0.00 0.00 62 1001.8
20240228065002 5 291 2.6 13.0 0.00 0.00 0.00 62 1001.8
20240228064501 5 288 3.5 15.6 0.00 0.00 0.00 62 1002.3
20240228064002 6 229 16.5 22.6 0.00 0.00 0.00 60 1002.0
20240228063501 5 327 7.0 12.2 0.00 0.00 0.00 61 1002.3
20240228063002 6 264 7.8 18.2 0.00 0.00 0.00 59 1002.4
20240228062502 6 355 7.0 26.9 0.00 0.00 0.00 61 1002.1
20240228062003 5 37 1.7 7.8 0.00 0.00 0.00 61 1002.3
20240228061502 5 61 4.3 7.8 0.00 0.00 0.00 62 1002.1
20240228061002 5 193 3.5 6.1 0.00 0.00 0.00 63 1002.0
20240228060502 6 316 3.5 11.3 0.00 0.00 0.00 62 1001.7
20240228060001 6 252 7.0 19.1 0.00 0.00 0.00 62 1001.6
20240228055502 5 253 13.0 23.5 0.00 0.00 0.00 64 1001.9
20240228055002 5 304 5.2 7.8 0.00 0.00 0.00 64 1001.8
20240228053501 6 285 4.3 10.4 0.00 0.00 0.00 64 1001.6
20240228053002 6 253 2.6 12.2 0.00 0.00 0.00 64 1001.6
20240228052501 6 55 2.6 12.2 0.00 0.00 0.00 66 1001.7
20240228052002 6 258 9.6 19.1 0.00 0.00 0.00 65 1001.5
20240228051002 6 269 7.0 17.4 0.00 0.00 0.00 68 1001.9
20240228050502 6 276 9.6 14.8 0.00 0.00 0.00 69 1001.8
20240228050002 6 279 6.1 16.5 0.00 0.00 0.00 71 1002.0
20240228045501 6 239 7.8 13.9 0.00 0.00 0.00 70 1001.9
20240228045002 6 273 7.8 7.8 0.00 0.00 0.00 70 1002.0
20240228044502 6 285 5.2 7.8 0.00 0.00 0.00 70 1002.0
20240228044002 6 308 3.5 9.6 0.00 0.00 0.00 69 1001.7
20240228043503 6 262 2.6 9.6 0.00 0.00 0.00 69 1001.8
20240228043002 6 292 8.7 26.9 0.00 0.00 0.00 68 1001.8
20240228041002 6 136 2.6 3.5 0.00 0.00 0.00 72 1001.5
20240228040501 6 54 2.6 3.5 0.00 0.00 0.00 70 1001.5
20240228040002 6 287 2.6 9.6 0.00 0.00 0.00 69 1001.5
20240228035502 6 271 4.3 7.8 0.00 0.00 0.00 74 1001.5
20240228035002 6 237 3.5 5.2 0.00 0.00 0.00 76 1001.3
20240228034502 6 265 3.5 5.2 0.00 0.00 0.00 75 1001.3
20240228034002 6 125 1.7 5.2 0.00 0.00 0.00 75 1001.5
20240228033502 6 52 1.7 5.2 0.00 0.00 0.00 69 1001.3
20240228033002 6 263 4.3 6.1 0.00 0.00 0.00 73 1001.5
20240228032501 6 242 7.0 8.7 0.00 0.00 0.00 71 1001.2
20240228032002 6 244 4.3 4.3 0.00 0.00 0.00 76 1001.2
20240228030502 6 281 4.3 11.3 0.00 0.00 0.00 73 1000.9
20240228030002 6 242 5.2 20.0 0.00 0.00 0.00 73 1000.9
20240228024501 6 259 3.5 15.6 0.00 0.00 0.00 76 1000.8
20240228024002 6 259 6.1 13.0 0.00 0.00 0.00 75 1000.6
20240228023501 7 292 8.7 15.6 0.00 0.00 0.00 75 1000.6
20240228023002 7 268 9.6 15.6 0.00 0.00 0.00 75 1000.2
20240228022502 7 240 7.0 13.9 0.00 0.00 0.00 74 1000.0
20240228022002 7 304 4.3 19.1 0.00 0.00 0.00 74 1000.0
20240228021502 7 268 9.6 17.4 0.00 0.00 0.00 76 999.7
20240228021002 7 262 9.6 15.6 0.00 0.00 0.00 76 999.9